IU1CYJ Weather Reports


time (UTC)temp
F
wind
direction
speed
knots
gust
knots
rain 1hr
in
rain 24hr
in
rain mn
in
humidity
%
barometer
mb
20260505194552 56 0 0.0 0.0 0.00 0.24 0.24 90 1013.0
20260505193054 56 0 0.0 0.0 0.00 0.24 0.24 90 1013.0
20260505191603 56 0 0.0 0.0 0.00 0.24 0.24 89 1012.8
20260505190100 56 0 0.0 0.0 0.00 0.24 0.24 89 1012.7
20260505184553 57 0 0.0 0.0 0.00 0.24 0.24 88 1012.6
20260505183114 57 0 0.0 0.0 0.00 0.24 0.24 88 1012.7
20260505181557 57 0 0.0 0.0 0.00 0.24 0.24 87 1012.6
20260505180058 57 0 0.0 0.0 0.00 0.24 0.24 88 1012.6
20260505174555 57 0 0.0 0.0 0.00 0.26 0.24 87 1012.5
20260505173059 57 0 0.0 0.0 0.00 0.26 0.24 86 1012.4
20260505171601 57 0 0.0 0.9 0.00 0.26 0.24 86 1012.7
20260505170055 58 163 0.0 1.7 0.00 0.26 0.24 85 1012.7
20260505164555 58 170 0.0 1.7 0.00 0.26 0.24 84 1012.8
20260505163053 58 157 0.0 1.7 0.00 0.26 0.24 84 1013.0
20260505161618 58 0 0.0 1.7 0.00 0.26 0.24 84 1012.9
20260505153059 58 163 0.0 1.7 0.00 0.26 0.24 84 1012.9
20260505151617 58 160 0.0 1.7 0.00 0.26 0.24 83 1013.0
20260505124556 56 250 0.9 2.6 0.00 0.26 0.24 87 1013.7
20260505123056 55 225 0.0 2.6 0.00 0.26 0.24 90 1013.8
20260505121609 55 231 0.0 2.6 0.00 0.26 0.24 91 1013.8
20260505120112 55 255 0.9 2.6 0.00 0.26 0.24 91 1013.8
20260505114558 54 0 0.0 1.7 0.00 0.26 0.24 91 1014.1
20260505113056 55 257 0.0 0.9 0.00 0.26 0.24 92 1014.0
20260505111600 55 0 0.0 0.9 0.00 0.26 0.24 93 1014.2
20260505101558 53 0 0.0 0.9 0.01 0.26 0.24 93 1014.5
20260505100054 53 0 0.0 0.9 0.02 0.26 0.24 93 1014.6
20260505094555 53 0 0.0 1.7 0.03 0.26 0.24 94 1014.5
20260505093054 52 246 0.0 0.9 0.04 0.25 0.23 93 1014.4
20260505091606 52 0 0.0 0.9 0.04 0.25 0.22 93 1014.4
20260505090052 52 250 0.0 0.9 0.04 0.24 0.22 94 1014.4
20260505084552 52 252 0.0 1.7 0.03 0.22 0.20 93 1014.2
20260505083055 52 248 0.0 1.7 0.03 0.21 0.18 93 1014.1
20260505081605 52 259 0.0 1.7 0.05 0.20 0.18 93 1014.1
20260505080055 52 0 0.0 3.5 0.05 0.19 0.17 93 1014.0
20260505074559 52 254 0.0 1.7 0.05 0.18 0.16 93 1014.0
20260505073104 52 252 0.9 2.6 0.03 0.17 0.14 92 1013.8
20260505071559 52 0 0.0 1.7 0.01 0.14 0.12 92 1014.0
20260505070104 52 275 1.7 3.5 0.00 0.14 0.11 90 1013.7
20260505064558 53 0 0.0 3.5 0.00 0.13 0.11 89 1013.8
20260505063055 53 281 0.0 0.9 0.00 0.13 0.11 89 1013.7
20260505061609 53 0 0.0 1.7 0.00 0.13 0.11 89 1013.5
20260505060054 53 0 0.9 1.7 0.00 0.13 0.11 90 1013.4
20260505054625 52 250 0.0 1.7 0.00 0.13 0.11 91 1013.4
20260505053111 52 258 0.0 1.7 0.00 0.13 0.11 91 1013.4
20260505051554 52 0 0.0 2.6 0.04 0.13 0.11 91 1013.4
20260505041600 53 0 0.0 0.0 0.03 0.08 0.06 93 1013.9
20260505040058 53 0 0.0 0.0 0.00 0.06 0.03 94 1014.1
20260505034556 53 0 0.0 0.0 0.00 0.06 0.03 94 1014.3
20260505033052 53 0 0.0 0.0 0.00 0.05 0.03 94 1014.4
20260505031606 53 0 0.0 0.0 0.00 0.05 0.03 93 1014.4
20260505030055 53 0 0.0 0.0 0.00 0.05 0.03 93 1014.4
20260505024613 53 0 0.0 0.0 0.00 0.05 0.03 92 1014.4
20260505023111 54 0 0.0 0.9 0.00 0.05 0.03 92 1014.5
20260505021553 54 0 0.0 0.9 0.00 0.05 0.03 91 1014.5
20260505020053 54 0 0.0 0.9 0.00 0.05 0.03 90 1014.4
20260505014605 54 0 0.0 0.9 0.00 0.05 0.03 89 1014.3
20260505013108 54 0 0.0 0.9 0.00 0.05 0.03 89 1014.4
20260505011554 54 244 0.0 1.7 0.00 0.05 0.03 89 1014.5
20260505010053 54 237 0.0 1.7 0.00 0.04 0.02 90 1014.7
20260505004556 54 261 1.7 3.5 0.02 0.04 0.02 89 1014.9
20260505003053 54 254 0.0 0.9 0.02 0.04 0.02 87 1015.4
20260505001556 55 0 0.0 0.0 0.02 0.04 0.02 87 1016.0
20260505000112 55 0 0.0 0.9 0.02 0.04 0.02 82 1016.1
20260504234551 56 0 0.0 0.9 0.00 0.02 0.00 80 1016.2
20260504233057 55 0 0.0 0.0 0.00 0.02 0.00 82 1016.4
20260504231553 55 0 0.0 0.9 0.00 0.02 0.00 80 1016.5
20260504230106 55 225 0.0 0.0 0.00 0.02 0.00 82 1016.7
20260504224557 56 0 0.0 0.0 0.00 0.02 0.00 82 1016.9
20260504223056 56 0 0.0 0.9 0.00 0.02 0.00 79 1016.9
20260504221603 56 225 0.0 0.9 0.00 0.02 0.00 80 1016.9
20260504220101 55 0 0.0 0.0 0.00 0.02 0.00 83 1017.2
20260504214557 56 0 0.0 0.9 0.00 0.02 0.02 83 1017.5
20260504213054 56 0 0.0 0.0 0.00 0.02 0.02 82 1017.5
20260504211553 56 0 0.0 0.9 0.00 0.02 0.02 82 1017.7
20260504210056 57 0 0.0 2.6 0.00 0.02 0.02 80 1017.6
20260504204603 57 0 0.0 1.7 0.00 0.02 0.02 79 1017.6
20260504203107 57 217 0.9 3.5 0.00 0.02 0.02 78 1017.7
20260504201554 57 254 0.0 1.7 0.00 0.02 0.02 79 1017.8
20260504200058 57 0 0.0 2.6 0.00 0.02 0.02 80 1017.9